📊 Raw Sensor Data
Showing records 48651 to 48675 of 85,105 total
| ID | Distance (ft) | Battery V | Battery A | Int Temp (°F) | Int Humid (%) | Ext Temp (°F) | Solar V | RSSI | SNR | Time Stamp |
|---|---|---|---|---|---|---|---|---|---|---|
| 36467 | -- | 3.92 | -10 | 49 | 40 | 50 | 4.20 | -86 | 7 | 03/31/2025 07:00 AM |
| 36466 | 15.1 | 3.93 | -5 | 49 | 41 | 50 | 1.70 | -83 | 8 | 03/31/2025 06:45 AM |
| 36465 | 15.1 | 4.01 | -5 | 49 | 41 | 50 | 0.10 | -84 | 8 | 03/31/2025 06:30 AM |
| 36464 | 15.0 | 3.94 | -5 | 49 | 41 | 50 | 0.00 | -86 | 7 | 03/31/2025 06:15 AM |
| 36463 | 15.0 | 3.94 | -5 | 50 | 41 | 50 | 0.00 | -84 | 8 | 03/31/2025 06:00 AM |
| 36462 | -- | 4.01 | -5 | 50 | 41 | 51 | 0.00 | -85 | 7 | 03/31/2025 05:45 AM |
| 36461 | -- | 3.95 | -5 | 51 | 41 | 51 | 0.00 | -86 | 7 | 03/31/2025 05:30 AM |
| 36460 | -- | 3.95 | -5 | 51 | 41 | 51 | 0.00 | -86 | 8 | 03/31/2025 05:15 AM |
| 36459 | -- | 4.01 | -5 | 51 | 41 | 51 | 0.00 | -92 | 6 | 03/31/2025 05:01 AM |
| 36458 | -- | 3.94 | -5 | 51 | 41 | 51 | 0.00 | -85 | 7 | 03/31/2025 04:45 AM |
| 36457 | -- | 3.94 | -5 | 53 | 40 | 53 | 0.00 | -84 | 8 | 03/31/2025 04:31 AM |
| 36456 | -- | 4.01 | -5 | 53 | 41 | 54 | 0.00 | -78 | 8 | 03/31/2025 04:15 AM |
| 36455 | -- | 3.95 | -5 | 53 | 41 | 54 | 0.10 | -80 | 7 | 03/31/2025 04:00 AM |
| 36454 | -- | 3.95 | -5 | 53 | 41 | 54 | 0.00 | -79 | 7 | 03/31/2025 03:45 AM |
| 36453 | -- | 3.95 | -5 | 54 | 41 | 54 | 0.10 | -77 | 8 | 03/31/2025 03:31 AM |
| 36452 | -- | 4.02 | -5 | 54 | 40 | 55 | 0.00 | -78 | 8 | 03/31/2025 03:15 AM |
| 36451 | -- | 3.95 | -5 | 55 | 40 | 55 | 0.00 | -78 | 8 | 03/31/2025 03:00 AM |
| 36450 | -- | 4.02 | -5 | 55 | 40 | 56 | 0.00 | -79 | 8 | 03/31/2025 02:45 AM |
| 36449 | -- | 4.02 | -5 | 55 | 40 | 56 | 0.00 | -79 | 7 | 03/31/2025 02:30 AM |
| 36448 | 15.0 | 3.95 | -5 | 55 | 40 | 56 | 0.10 | -78 | 7 | 03/31/2025 02:15 AM |
| 36447 | -- | 3.95 | -5 | 54 | 39 | 55 | 0.00 | -79 | 7 | 03/31/2025 02:00 AM |
| 36446 | -- | 3.95 | -5 | 54 | 40 | 55 | 0.00 | -81 | 8 | 03/31/2025 01:45 AM |
| 36445 | -- | 4.02 | -5 | 53 | 39 | 54 | 0.00 | -77 | 7 | 03/31/2025 01:30 AM |
| 36444 | -- | 3.96 | -5 | 53 | 39 | 55 | 0.00 | -80 | 8 | 03/31/2025 01:15 AM |
| 36443 | -- | 3.96 | -5 | 52 | 40 | 54 | 0.00 | -80 | 8 | 03/31/2025 01:01 AM |